Погода в Анкоридже

США     61°09′34″N   149°53′02″W
темп.,
°C
ветер,
м/с
пор.,
м/с
влажн.,
%
обл.,
%
осадки,
мм/ч
давл.,
гПа
погр.,
м
21 октября, чт
чт2101:00+3ссв2383100 0.1 995126
04:00+2с2297100 2.9 996274
07:00+1ююз0099100 2.8 99693
10:00+2ююв1298100 3.8 997193
13:00+3св128799 0.0 997345
16:00+4ссв228692 0.0 996404
19:00+3ссв459197 0.0 993374
22:00+2с569486 0.0 991261
22 октября, пт
пт2201:00+1ссв469342 0.0 989214
04:000ссв469261 0.0 986217
07:000ссв4785100 0.0 984209
10:00+1ссв4681100 0.0 982212
13:00+2с5776100 0.0 980273
16:00+4с4675100 0.0 978271
19:00+3с4681100 0.0 978194
22:00+3ссв3581100 0.0 978151
23 октября, сб
сб2301:00+3ссв3578100 0.0 979148
04:00+3с3579100 0.0 982136
07:00+1с4581100 0.0 984127
10:00+2ссв3580100 0.0 985142
13:00+4с3576100 0.0 986204
16:00+4ссв3575100 0.0 986204
19:00+3ссв2278100 0.0 98897
22:00+3с3480100 0.0 991128
24 октября, вс
вс2401:00+3ссв478061 0.0 993189
04:00+3ссв2279100 0.0 99683
07:00+3ссз2281100 0.0 99881
10:00+2св1184100 0.0 99977
13:00+4с0179100 0.0 999133
16:00+5св22805 0.0 998162
19:00+3ссв228721 0.0 998107
22:00+2св348911 0.0 997131
25 октября, пн
пн2501:00+1ссв3492100 0.0 997138
04:00+1ссв359485 0.0 996221
07:00+1ссв349292 0.0 994204
10:00+1ссв3489100 0.0 994227
13:00+2с338287 0.0 994323
16:00+2с3579100 0.0 994477
19:00+2с3679100 0.0 994397
22:00+1с5971100 0.0 994445